This demonstration page uses our WeatherBlox Daily Observations layout. Learn more.

Left ArrowRight Arrow

39.92423, -83.80882

Hourly Observations for November 20, 2020

Temp ( °F °C ) Dew Point ( °F °C ) Humidity (%) Winds ( mph kmh ) Pressure ( in mb ) Visibility ( mi km ) Precip ( " mm )
12:56 am 00:56 Clear 53 11.7 29 -1.7 40 40 SSW 10 17 30.24 1024 10 16 N/A
1:56 am 01:56 Clear 51 10.6 29 -1.7 43 43 SSW 9 15 30.25 1025 10 16 N/A
2:56 am 02:56 Clear 49 9.4 29 -1.7 46 46 SSW 7 11 30.27 1025 10 16 N/A
3:56 am 03:56 Clear 49 9.4 30 -1.1 48 48 SSW 10 17 30.27 1025 10 16 N/A
4:56 am 04:56 Clear 50 10 29 -1.7 44 44 SSW 13 20 30.28 1025 10 16 N/A
5:56 am 05:56 Clear 49 9.4 28 -2.2 44 44 SSW 13 20 30.29 1026 10 16 N/A
6:56 am 06:56 Clear 48 8.9 28 -2.2 46 46 SSW 12 19 30.30 1026 10 16 N/A
7:56 am 07:56 Sunny 49 9.4 28 -2.2 44 44 SSW 10 17 30.31 1026 10 16 N/A
8:56 am 08:56 Sunny 51 10.6 28 -2.2 41 41 SW 16 26 30.32 1027 10 16 N/A
9:56 am 09:56 Mostly Cloudy 56 13.3 31 -0.6 39 39 SW 16 26 30.33 1027 10 16 N/A
10:56 am 10:56 Cloudy 55 12.8 34 1.1 45 45 SW 15 24 30.34 1028 10 16 N/A
11:56 am 11:56 Cloudy 56 13.3 36 2.2 47 47 SW 14 22 30.32 1027 10 16 N/A
12:56 pm 12:56 Cloudy 59 15 39 3.9 48 48 SW 16 26 30.32 1027 10 16 N/A
1:56 pm 13:56 Cloudy 60 15.6 41 5 50 50 SW 17 28 30.31 1026 10 16 N/A
2:56 pm 14:56 Mostly Sunny 61 16.1 43 6.1 52 52 SSW 12 19 30.30 1026 10 16 N/A
3:56 pm 15:56 Partly Cloudy 60 15.6 44 6.7 56 56 SW 12 19 30.32 1027 10 16 N/A
4:56 pm 16:56 Cloudy 58 14.4 45 7.2 62 62 WSW 8 13 30.33 1027 10 16 N/A
5:56 pm 17:56 Cloudy 55 12.8 46 7.8 72 72 SW 6 9 30.36 1028 10 16 N/A
6:56 pm 18:56 Cloudy 56 13.3 46 7.8 70 70 SW 8 13 30.36 1028 10 16 N/A
7:56 pm 19:56 Mostly Cloudy 54 12.2 46 7.8 75 75 SW 7 11 30.37 1028 10 16 N/A
8:56 pm 20:56 Mostly Clear 53 11.7 46 7.8 77 77 SW 6 9 30.38 1029 10 16 N/A
9:56 pm 21:56 Mostly Cloudy 52 11.1 46 7.8 80 80 SW 6 9 30.38 1029 10 16 N/A
10:56 pm 22:56 Cloudy 53 11.7 48 8.9 83 83 SW 6 9 30.38 1029 10 16 N/A
11:56 pm 23:56 Cloudy 53 11.7 48 8.9 83 83 SW 7 11 30.39 1029 10 16 N/A

Powered by AerisWeather